EW5186 Weather Reports


time (UTC)temp
C
wind
direction
speed
KPH
gust
KPH
rain 1hr
cm
rain 24hr
cm
rain mn
cm
humidity
%
barometer
mb
20260901094523 19 150 0.0 0.0 0.05 0.15 0.13 95 1017.7
20260901093021 19 211 0.0 4.8 0.08 0.15 0.13 95 1017.5
20260901091520 19 113 0.0 4.8 0.08 0.15 0.13 95 1017.8
20260901090017 19 34 0.0 3.2 0.05 0.13 0.10 95 1017.9
20260901084515 19 192 0.0 0.0 0.03 0.10 0.08 94 1018.2
20260901083057 20 69 0.0 1.6 0.03 0.08 0.05 94 1018.2
20260901081556 20 69 0.0 1.6 0.03 0.08 0.05 94 1018.4
20260901080039 20 103 0.0 3.2 0.03 0.08 0.05 94 1018.3
20260901074540 20 72 0.0 0.0 0.05 0.08 0.05 94 1018.4
20260901073018 20 72 0.0 0.0 0.03 0.05 0.03 93 1018.5
20260901071518 20 72 0.0 0.0 0.03 0.05 0.03 93 1018.5
20260901070106 20 72 0.0 0.0 0.03 0.05 0.03 93 1018.5
20260901064557 20 72 0.0 1.6 0.00 0.03 0.00 93 1018.6
20260901063039 20 72 0.0 1.6 0.00 0.03 0.00 92 1018.7
20260901061536 20 72 0.0 1.6 0.00 0.03 0.00 92 1018.8
20260901060024 20 72 0.0 0.0 0.00 0.03 0.00 91 1018.8
20260901054523 20 72 0.0 1.6 0.00 0.03 0.00 90 1018.9
20260901053021 20 72 0.0 1.6 0.00 0.03 0.00 90 1019.1
20260901051521 20 72 0.0 0.0 0.00 0.03 0.00 90 1019.1
20260901050021 20 72 0.0 1.6 0.00 0.03 0.00 90 1019.2
20260901044519 20 72 0.0 0.0 0.00 0.03 0.00 89 1019.5
20260901043021 20 72 0.0 0.0 0.00 0.03 0.00 89 1019.5
20260901041516 20 72 0.0 1.6 0.00 0.03 0.00 88 1019.4
20260901040107 20 77 0.0 0.0 0.00 0.03 0.03 89 1019.5
20260901034607 20 75 0.0 1.6 0.00 0.03 0.03 88 1019.4
20260901033037 20 136 0.0 0.0 0.00 0.03 0.03 88 1019.6
20260901031538 20 136 0.0 0.0 0.00 0.03 0.03 87 1019.8
20260901030019 20 136 0.0 0.0 0.00 0.03 0.03 87 1019.8
20260901024519 20 136 0.0 0.0 0.00 0.03 0.03 86 1019.8
20260901023007 20 200 0.0 1.6 0.00 0.03 0.03 86 1019.8
20260901021503 20 84 0.0 0.0 0.00 0.03 0.03 86 1019.7
20260901020045 20 79 0.0 1.6 0.00 0.03 0.03 86 1019.9
20260901014543 20 122 0.0 0.0 0.00 0.03 0.03 86 1020.3
20260901013033 20 117 0.0 1.6 0.00 0.03 0.03 85 1020.2
20260901011532 20 105 0.0 1.6 0.00 0.03 0.03 85 1020.1
20260901010031 20 105 0.0 0.0 0.00 0.03 0.03 85 1020.0
20260901004531 20 170 0.0 1.6 0.00 0.03 0.03 84 1020.0
20260901003030 20 168 0.0 1.6 0.00 0.03 0.03 84 1019.8
20260901001530 20 78 0.0 0.0 0.00 0.03 0.03 83 1019.9
20260901000029 20 78 0.0 1.6 0.00 0.03 0.03 82 1019.8
20260831234532 20 100 0.0 1.6 0.00 0.03 0.03 81 1020.0
20260831233014 21 169 0.0 0.0 0.00 0.03 0.03 80 1020.1
20260831231523 21 149 0.0 1.6 0.00 0.03 0.03 79 1020.2
20260831230051 21 214 0.0 3.2 0.00 0.03 0.03 78 1020.3
20260831224550 21 145 0.0 1.6 0.00 0.03 0.03 77 1020.4
20260831223037 21 198 0.0 4.8 0.00 0.03 0.03 77 1020.4
20260831221533 21 108 0.0 3.2 0.00 0.03 0.03 77 1020.3
20260831220014 22 200 0.0 4.8 0.00 0.03 0.03 79 1020.3
20260831214512 22 228 0.0 8.0 0.00 0.03 0.03 79 1020.4
20260831213058 22 124 0.0 8.0 0.00 0.03 0.03 78 1020.5
20260831211555 22 67 0.0 4.8 0.00 0.03 0.03 77 1020.3
20260831210043 23 210 0.0 9.7 0.00 0.03 0.03 76 1020.3
20260831204543 23 131 0.0 4.8 0.00 0.03 0.03 75 1020.3
20260831203041 24 92 0.0 4.8 0.00 0.03 0.03 72 1020.3
20260831201542 25 193 0.0 4.8 0.00 0.03 0.03 68 1020.4
20260831200040 25 193 0.0 6.4 0.00 0.03 0.03 67 1020.6
20260831194558 25 135 0.0 9.7 0.00 0.03 0.03 67 1020.7
20260831193040 25 352 0.0 9.7 0.00 0.03 0.03 66 1020.8
20260831191539 24 150 0.0 4.8 0.00 0.03 0.03 67 1021.0
20260831190044 24 108 0.0 9.7 0.00 0.03 0.03 68 1021.1
20260831184521 25 154 1.6 6.4 0.00 0.03 0.03 66 1021.0
20260831183020 25 134 0.0 9.7 0.00 0.03 0.03 64 1021.1
20260831181502 25 67 1.6 12.9 0.00 0.03 0.03 65 1021.1
20260831180001 25 133 0.0 8.0 0.00 0.03 0.03 67 1021.2
20260831174543 26 56 1.6 8.0 0.00 0.03 0.03 66 1021.2
20260831173045 26 125 0.0 6.4 0.00 0.03 0.03 63 1021.3
20260831171527 26 286 0.0 9.7 0.00 0.03 0.03 60 1021.3
20260831170023 27 122 0.0 4.8 0.00 0.03 0.03 63 1021.3
20260831164503 26 290 0.0 6.4 0.00 0.03 0.03 64 1021.6
20260831163003 25 331 0.0 6.4 0.00 0.03 0.03 66 1021.5
20260831161650 25 84 3.2 6.4 0.00 0.03 0.03 64 1021.7
20260831160048 25 79 0.0 9.7 0.00 0.03 0.03 64 1021.8
20260831154546 25 95 1.6 11.3 0.00 0.03 0.03 63 1021.9
20260831153045 25 76 1.6 8.0 0.00 0.03 0.03 62 1021.8
20260831151543 25 339 3.2 9.7 0.00 0.03 0.03 65 1021.8
20260831150043 25 55 0.0 4.8 0.00 0.03 0.03 70 1021.9
20260831144539 24 73 0.0 8.0 0.00 0.03 0.03 72 1022.0
20260831143049 23 75 0.0 8.0 0.00 0.03 0.03 69 1022.1
20260831141518 23 285 0.0 4.8 0.00 0.03 0.03 72 1021.9
20260831140017 23 82 0.0 1.6 0.00 0.03 0.03 72 1021.9
20260831134556 23 108 0.0 4.8 0.00 0.03 0.03 79 1021.7
20260831133052 22 263 0.0 4.8 0.00 0.03 0.03 77 1021.6
20260831131545 22 256 1.6 4.8 0.00 0.03 0.03 80 1021.9
20260831130031 22 298 0.0 4.8 0.00 0.03 0.03 83 1021.7
20260831124521 21 299 0.0 3.2 0.00 0.03 0.03 85 1021.8
20260831123015 20 294 0.0 3.2 0.00 0.03 0.03 87 1021.6
20260831121515 20 146 0.0 1.6 0.00 0.03 0.03 89 1021.6
20260831120012 18 274 0.0 1.6 0.03 0.03 0.03 95 1021.6
20260831114511 17 253 0.0 0.0 0.03 0.03 0.03 96 1021.4
20260831113009 17 152 0.0 0.0 0.03 0.03 0.03 96 1021.3
20260831111504 17 152 0.0 0.0 0.03 0.03 0.03 96 1021.0
20260831110002 16 152 0.0 0.0 0.00 0.00 0.00 96 1020.7
20260831104545 16 152 0.0 0.0 0.00 0.00 0.00 96 1020.7
20260831103044 16 152 0.0 0.0 0.00 0.00 0.00 96 1020.7
20260831101527 16 152 0.0 0.0 0.00 0.00 0.00 96 1020.7
20260831100025 16 152 0.0 0.0 0.00 0.00 0.00 96 1020.8